Regional Weather Roundup
Issued by NWS Wakefield, VA

Home | Current Version | Previous Version | Graphics & Text | Print | Product List | Glossary On
Versions: 1 2 3 4 5 6 7 8 9 10 11 12 13 14 15 16 17 18 19 20 21 22 23 24 25 26 27 28 29 30 31 32 33 34 35 36 37 38 39 40 41 42 43 44 45 46 47 48 49 50
817
ASUS41 KAKQ 290915
RWRAKQ

REGIONAL WEATHER ROUNDUP
NATIONAL WEATHER SERVICE WAKEFIELD VA
500 AM EDT FRI JUL 29 2016

Note: "fair" indicates few or no clouds below 12,000 feet with no
significant weather and/or obstructions to visibility. * = Denotes
station may not report precipitation (e.g., rain,snow,etc.),
thunder or fog.

VAZ042-051-052>054-056-291000-
NORTHERN VIRGINIA

CITY           SKY/WX    TMP DP  RH WIND       PRES   REMARKS
WASH NATIONAL  LGT RAIN  75  73  93 N14       29.80S
DULLES         LGT RAIN  73  71  93 NW8       29.82S FOG
FORT BELVOIR   DRIZZLE   75  73  93 NW8       29.79S
QUANTICO       CLOUDY    76  73  91 N8        29.80S
FREDERICKSBRG* CLOUDY    74  74 100 NW7       29.80R
STAFFORD*      CLOUDY    73  71  93 NW7       29.84S
WARRENTON      CLOUDY    73  67  83 NW5       29.82S
CULPEPER*      CLOUDY    73  72  96 N7        29.83S
MANASSAS*      CLOUDY    73  72  94 N5        29.82R
LEESBURG*      CLOUDY    73  73 100 N8        29.84S
WINCHESTER     CLOUDY    68  68 100 NW6       29.86F
FRONT ROYAL*   CLOUDY    68  68 100 CALM      29.86F
LURAY*         CLOUDY   N/A N/A N/A CALM      29.86F
$$

VAZ048-049-060>072-079>083-291000-
CENTRAL AND SOUTH CENTRAL VIRGINIA

CITY           SKY/WX    TMP DP  RH WIND       PRES   REMARKS
RICHMOND       FAIR      75  74  96 W10       29.79F
CHESTERFIELD*  CLOUDY    75  63  64 W7        29.81F
PETERSBURG*    CLOUDY   N/A N/A N/A W7        29.81F
HANOVER        CLOUDY    75  73  93 W6        29.81F
TAPPAHANNOCK*  CLOUDY    75  75 100 SW3       29.78F FOG
QUINTON*       PTSUNNY   74  74 100 CALM      29.78F
CHARLOTTSVILLE MOCLDY    74  71  91 CALM      29.83F
GORDONSVILLE*  CLOUDY    73  73  99 CALM      29.82F
ORANGE*          N/A     73  73 100 CALM      29.84F
LOUISA*        CLOUDY    75  75 100 NW3       29.82S
BUMPASS*       CLOUDY    72  72 100 W3        29.82S
FARMVILLE*     MOCLDY   N/A N/A N/A CALM      29.84R
CREWE*         NOT AVBL
FORT PICKETT*  FAIR      72  71  98 W6        29.83S
CHASE CITY*    FAIR      73  72  94 CALM      29.85S
CLARKSVILLE*   FAIR      73  73 100 CALM      29.85S
SOUTH HILL*    FAIR      75  72  91 CALM      29.89S
LAWRENCEVILLE* FAIR      76  73  92 CALM      29.83R
EMPORIA*         N/A     73  72  94 W3        29.83R
$$

VAZ088>098-291000-
SOUTHEAST VIRGINIA

CITY           SKY/WX    TMP DP  RH WIND       PRES   REMARKS
NORFOLK        FAIR      83  71  67 SW12      29.78S
VIRGINIA BEACH FAIR      86  70  58 SW12      29.78S
NORFOLK NAVAL  FAIR      83  71  67 SW10G20   29.79F
WEST POINT*    FAIR      74  73  96 CALM      29.78F
SALUDA*        FAIR      74  74 100 CALM      29.77S
NEWPORT NEWS   FAIR      82  73  74 SW10      29.78S
LANGLEY AFB    FAIR      82  73  73 SW15      29.77F
FORT EUSTIS    FAIR      81  74  78 W7        29.76S
WILLIAMSBURG*  FAIR      82  75  78 W7        29.79S
HR EXEC AP*    FAIR      79  72  78 SW8       29.82S
FRANKLIN*      FAIR      78  71  79 S5        29.80F
US460-WAKEFLD  FAIR      77  72  84 S3        29.79F
$$

VAZ020-022-025-037-045-291000-
WEST CENTRAL AND SOUTHWEST VIRGINIA

CITY           SKY/WX    TMP DP  RH WIND       PRES   REMARKS
STAUNTON*      FAIR      69  68  97 CALM      29.89F
WAYNESBORO*    CLOUDY    69  68  97 CALM      29.89F
HOT SPRINGS VA DRZL/FOG  64  64 100 W10       30.00F VSB<1/4
LYNCHBURG      CLOUDY    72  72 100 CALM      29.89S FOG
DANVILLE       CLOUDY    77  70  79 W3        29.87S
SOUTH BOSTON*  PTSUNNY  N/A N/A N/A CALM      29.85F
MARTINSVILLE   CLOUDY    73  68  83 CALM      29.93S
ROANOKE        FAIR      71  69  93 W3        29.92S
BLACKSBURG     CLOUDY    69  67  94 CALM      30.00S
DUBLIN*        MOCLDY    69  66  90 W6        30.00R
MARION*        CLOUDY    69  67  93 SW3       30.05R
HILLSVILLE*    FAIR      67  67  99 NW5       30.00R
RICHLANDS*     CLOUDY    66  66 100 W5        30.05R FOG
WISE*          CLOUDY    66  64  94 SW3       30.07R
ABINGDON*      CLOUDY    70  70  99 W6        30.03R
$$

MDZ021>025-VAZ099-100-291000-
SOUTHERN MARYLAND AND THE DELMARVA PENINSULA

CITY           SKY/WX    TMP DP  RH WIND       PRES   REMARKS
PATUXENT RIVER PTCLDY    75  72  90 W7        29.77R
BAY BRIDGE APT CLOUDY    75  73  94 CALM      29.79R
LEONARDTOWN    PTCLDY    73  72  94 W6        29.80S
DOVER          CLOUDY    75  75 100 N1        29.78R
GEORGETOWN     CLOUDY    73  73 100 NW5       29.79R
EASTON         CLOUDY    75  75 100 CALM      29.82S
CAMBRIDGE      CLOUDY    72  72 100 CALM      29.78R
SALISBURY      NOT AVBL
OCEAN CITY       N/A    N/A N/A N/A MISG      29.77S
WALLOPS ISLAND FAIR      76  74  93 S3        29.76S
ACCOMACK*      NOT AVBL
$$

NCZ012>017-030>032-291000-
NORTH CENTRAL AND EASTERN NORTH CAROLINA

CITY           SKY/WX    TMP DP  RH WIND       PRES   REMARKS
ROANOKE RAPIDS FAIR      75  72  88 SW3       29.83F
RALEIGH        CLEAR     76  70  82 SW7       29.87S
ELIZABETH CITY CLEAR     81  72  74 SW12G21   29.81F
AHOSKIE*       CLEAR     75  72  89 CALM      29.83S
EDENTON*       CLEAR     85  73  67 SW9       29.84S
CURRITUCK*     CLEAR     81  73  78 SW7       29.81F
KILL DEVIL HLS CLEAR     83  74  75 SW8       29.82F
MANTEO           N/A     82  77  87 SW13      29.84F
CAPE HATTERAS  CLEAR     80  78  94 W9        29.87S
TARBORO*       FAIR      79  72  78 SW5       29.85S
GOLDSBORO      PTCLDY    81  75  83 SW10      29.85F
WASHINGTON     PTCLDY    79  74  84 SW7       29.85F
GREENVILLE     CLEAR     81  77  89 SW8       29.87F
NEW BERN       CLEAR     79  74  84 SW7       29.89F
WILMINGTON     CLEAR     81  77  88 SW6       29.91S
$$

VAZ048-291000-
ELSEWHERE

CITY           SKY/WX    TMP DP  RH WIND       PRES   REMARKS
HARRISBURG PA  CLOUDY    72  71  97 NW5       29.82S
BALTIMORE      RAIN      72  70  93 N6        29.79R FOG
ANNAPOLIS      LGT RAIN  77  74  90 NW7       29.79R
ANDREWS AFB    LGT RAIN  75  74  96 NW8       29.79R FOG
PHILADELPHIA   LGT RAIN  75  72  90 N14       29.80F
GREENSBORO     PTCLDY    76  68  76 W7        29.89S
ROCKY MOUNT    PTCLDY    76  73  91 S6        29.85S
$$

VAZ100-291000-
MARINE

STATION/POSITION TIME  TEMP    WIND        PRES    WAVE   SWELL
                       AIR SEA DIR/SP/G            HT/PER HT/PER
                 (UTC) (F)     (DEG/KT/KT) (MB)    (FT/S) (FT/S)
BRANDYWINE LGT   0800   74     130/  6/  6   N/A
CAPE MAY NJ      0800   74 72   80/  5/  7 1007.4F
LEWES DE         0800   74 71   30/  2/  2 1007.8F
OCEAN-CITY-INLET 0800   74 71  360/  3/  4 1008.3R
WACHAPREAGUE VA  0800   76 85  120/  3/  4 1008.1F
THOMAS POINT MD  0900   77 84  360/  8/  8 1009.9R
GOOSES REEF MD   0800   79 85  290/  6/  8 1008.7F   1
COVE POINT MD    0800   76     300/  5/  7 1008.6R
SOLOMONS ISLAND  0800   76 85  290/  4/  6   N/A
BISHOPS HEAD MD  0800   81     160/  6/  7 1007.9F
PINEY POINT MD   0800          260/  6/  9   N/A
POTOMAC MD       0800   79 85  240/ 10/ 12 1006.6F   0
CAMBRIDGE MD     0800   76 88   20/  7/ 11 1006.3F
LEWISETTA VA     0800   76 87  260/  7/  8 1007.6F
RAPPAHANNOCK LGT 0800          130/  8/  9 1008.5F
STINGRAY PT      0800   82 86  110/  8/ 10 1008.4F   1/ 3
YORK RVR RNG VA  0800   83     210/ 12/ 15 1007.5F
YORKTOWN VA      0800   81 85  210/  7/  9 1007.7F
JAMESTOWN VA     0800   83 89  230/ 10/ 12   N/A     0
DOMINION TERM VA 0800   84     240/ 16/ 20 1008.6F
KIPTOPEKE VA     0800      80  160/  8/  8   N/A
CHES BAY BRIDGE  0800   84 76  220/ 14/ 16 1008.3F
CAPE HENRY VA    0800   82     220/  6/ 11   N/A
WILLOUBY STN VA  0800   85     230/ 17/ 20   N/A
CAPE HENRY BUOY  0842      78                N/A     2/ 4
1ST LANDING BUOY 0800   83 80  250/ 10/ 14 1008.2F   2/ 3
CAPE CHARLES BUO 0826      75                N/A     1/ 4
OFFSHORE WE BUOY 0821      82                N/A     3/ 4
64NM E OF VA BCH 0850   83 81  210/ 16/ 17 1008.9F   3/ 5   2/ 8
DUCK PIER NC     0800   84 67  230/ 15/ 19 1009.3F
44100 DUCK FRF   0805      80                N/A     2/ 8
44056 DUCK FRF   0841      73                N/A     1/14
OREGON INLET NC  0800   85 82  220/ 15/ 19 1010.6F
HATTERAS NC      0800   81 84  230/  7/ 12 1011.1F
DIAMOND SHLS NC  0850   85 85  240/ 19/ 21 1011.2F   5/ 6   2/14
CAPE LOOKOUT NC  0900   83     240/ 13/ 17 1011.8F
$$




USA.gov is the U.S. government's official web portal to all federal, state and local government web resources and services.